Location: Skalnate Pleso
(49.1889°N, 20.2450°E)
Time: 00:31:57
(UTC+02:00)

Cosmos 1269 Rocket - Pass Details

Date: 28 February 2020
Orbit: 772 x 780 km, 74.1° (Epoch: 05 April)

Event Time Altitude Azimuth Distance (km) Brightness Sun altitude
Exits shadow 02:34:27 15° 359° (N) 2,023 6.5 -36.8°
Drops below altitude 10° 02:35:28 10° 6° (N) 2,333 6.9 -36.6°
Sets 02:38:11 0° 18° (NNE) 3,266 7.9 -36.3°
